Tracking 25723 objects as of 26-Jun-2022
HD Live streaming from Space Station
objects crossing your sky now

STARLINK-2139

Track STARLINK-2139 now!
10-day predictions
STARLINK-2139 is classified as:


NORAD ID: 48554
Int'l Code: 2021-041B
Perigee: 553.5 km
Apogee: 555.3 km
Inclination: 53.1 °
Period: 95.6 minutes
Semi major axis: 6925 km
RCS: Unknown
Launch date: May 15, 2021
Source: United States (US)
Launch site: AIR FORCE EASTERN TEST RANGE (AFETR)
aabbcc
Your satellite tracking list
Your tracking list is empty




NASA's NSSDC Master Catalog

Two Line Element Set (TLE):
1 48554U 21041B   22177.46973319  .00001327  00000-0  10794-3 0  9992
2 48554  53.0558  81.9806 0001295  88.0541 272.0596 15.06399097 61398
Source of the keplerian elements: AFSPC